Regional Weather Roundup
Issued by NWS Green Bay, WI

Home | Current Version | Previous Version | Text Only | Print | Product List | Glossary On
Versions: 1 2 3 4 5 6 7 8 9 10 11 12 13 14 15 16 17 18 19 20 21 22 23 24 25 26 27 28 29 30 31 32 33 34 35 36 37 38 39 40 41 42 43 44 45 46 47 48 49 50
000
ASUS43 KGRB 210810
RWRGRB

NORTH-CENTRAL AND NORTHEAST WISCONSIN REGIONAL WEATHER ROUNDUP
NATIONAL WEATHER SERVICE GREEN BAY WI
300 AM CDT MON APR 21 2014

WIZ005-009-010>012-018-019-210900-
NORTH CENTRAL WISCONSIN

CITY           SKY/WX    TMP DP  RH WIND       PRES   REMARKS
IRONWOOD       PTCLDY    34  28  80 CALM      29.92F
MANITOWISH WTR MOCLDY    31  30  95 CALM      29.95F
ARBOR VITAE    MOCLDY    37  30  78 CALM      29.96F
EAGLE RIVER    MOCLDY    34  34 100 CALM      29.96S
LAND O LAKES   MOCLDY    30  29  95 CALM      29.97S
RHINELANDER    FOG       40  40 100 CALM      29.97F VSB 1/4
PHILLIPS       FOG       41  41 100 CALM      29.96F VSB 1/4
ANTIGO         CLOUDY    47  47  99 CALM      29.95F FOG
TOMAHAWK       FOG       40  39  97 CALM      29.96F VSB 1/4
MERRILL        CLOUDY    48  48 100 NE3G48    29.96S FOG
$$

WIZ013-073-210900-
NORTHEAST WISCONSIN

CITY           SKY/WX    TMP DP  RH WIND       PRES   REMARKS
IRON MOUNTAIN  FOG       41  41 100 NW3       29.95F VSB 1/4
MARINETTE      CLOUDY    41  39  93 SE5       29.93F
OCONTO         CLOUDY    45  45  99 CALM      29.94S
$$

WIZ017-030-035>037-045-210900-
CENTRAL WISCONSIN

CITY           SKY/WX    TMP DP  RH WIND       PRES   REMARKS
MEDFORD        FOG       48  48 100 CALM      29.96S VSB 1/4
WAUSAU         CLOUDY    51  51 100 CALM      29.94F FOG
MOSINEE        CLOUDY    50  50 100 CALM      29.96F FOG
MARSHFIELD     CLOUDY    53  51  93 N5        29.95S FOG
WISC RAPIDS    CLOUDY    52  51  97 CALM      29.96F FOG
STEVENS POINT  CLOUDY    50  50  99 CALM      29.96S FOG
WAUPACA        LGT RAIN  54  52  94 NW5       29.95F
SHAWANO        FOG       48  47  95 CALM      29.95F VSB 1/2
CLINTONVILLE   CLOUDY    50  50 100 CALM      29.95F FOG
$$

WIZ038-039-048-051-210900-
FOX VALLEY

CITY           SKY/WX    TMP DP  RH WIND       PRES   REMARKS
NWS GREEN BAY  CLOUDY    49  48  97 E5        29.95R FOG
APPLETON       CLOUDY    50  46  87 CALM      29.94F
OSHKOSH        CLOUDY    50  47  89 NW3       29.94F FOG
FOND DU LAC    CLOUDY    51  46  83 CALM      29.94S
$$

WIZ022-050-052-210900-
EAST CENTRAL WISCONSIN

CITY           SKY/WX    TMP DP  RH WIND       PRES   REMARKS
STURGEON BAY   CLOUDY    46  43  87 SE6       29.95F
MANITOWOC      CLOUDY    44  40  85 CALM      29.94F
SHEBOYGAN      MOCLDY    46  39  76 CALM      29.93F
$$

LMZ563-521-522-541>543-210900-
LAKESHORE

STATION/POSITION TIME  TEMP    WIND        PRES    VSBY  WAVE
                       AIR SEA DIR/SP/G                  HT/PER
                 (UTC) (F)     (DEG/KT/KT) (MB)    (MI)  (FT/S)
SHEBOYGAN LKSHOR 0800   44     330/  2/  3 1014.3F
KEWAUNEE LKSHORE 0800   41      80/  3/  4 1014.7F
NORTHPORT PIER   0800   38      CALM  /  2 1014.6F
SISTER BAY LKSHO 0800   41        CALM       N/A
MENOMINEE LKSHOR 0800   35      20/  5/  6 1014.5F
$$



USA.gov is the U.S. government's official web portal to all federal, state and local government web resources and services.